Tracking 27079 objects as of 24-Mar-2023
HD Live streaming from Space Station
objects crossing your sky now

STARLINK-2491

Track STARLINK-2491 now!
10-day predictions
STARLINK-2491 is classified as:


NORAD ID: 48148
Int'l Code: 2021-027BJ
Perigee: 553.9 km
Apogee: 554.9 km
Inclination: 53.1 °
Period: 95.6 minutes
Semi major axis: 6925 km
RCS: Unknown
Launch date: April 7, 2021
Source: United States (US)
Launch site: AIR FORCE EASTERN TEST RANGE (AFETR)
Your satellite tracking list
Your tracking list is empty




NASA's NSSDC Master Catalog

Two Line Element Set (TLE):
1 48148U 21027BJ  23082.62699787  .00001324  00000-0  10777-3 0  9991
2 48148  53.0556 349.1901 0000760  93.3919 266.7157 15.06385940108920
Source of the keplerian elements: AFSPC